Weather Roundup
Issued by NWS

Home | Current Version | Previous Version | Graphics & Text | Print | Product List | Glossary Off
Versions: 1 2 3 4 5 6 7 8 9 10 11 12 13 14 15 16 17 18 19 20 21 22 23 24 25 26 27 28 29 30 31 32 33 34 35 36 37 38 39 40 41 42 43 44 45 46 47 48 49 50

000
NZUS93 KARX 280310
HRRWXR

CURRENT HOURLY OBSERVATIONS ACROSS
MUCH OF THE UPPER MISSISSIPPI VALLEY
NATIONAL WEATHER SERVICE LA CROSSE WI
1000 PM CDT MON MAR 27 2017


...SOUTHEAST MINNESOTA...


CITY           SKY/WX    TMP DP  RH WIND       PRES   REMARKS
ROCHESTER      CLEAR     41  39  93 CALM      30.00R
ROCHESTER/MAYO FAIR      43  40  89 CALM      30.01R
WINONA         CLEAR     37  37 100 CALM      30.02R
AUSTIN         CLOUDY    45  39  81 CALM      29.99S
ALBERT LEA     CLEAR     39  37  93 CALM      30.00R
DODGE CENTER   CLEAR     39  37  93 CALM      30.01R
PRESTON        CLOUDY    42  37  85 CALM      30.01R
OWATONNA       CLEAR     39  36  87 CALM      30.01R
FARIBAULT      PTCLDY    37  36  93 CALM      30.01R
$$

...ELSEWHERE IN MINNESOTA...


CITY           SKY/WX    TMP DP  RH WIND       PRES   REMARKS
MINNEAPOLIS    CLEAR     47  36  65 S5        30.00R
INTNL FALLS    CLOUDY    39  27  62 N5        30.01R
DULUTH         CLEAR     38  31  76 SE3       30.01R
RED WING       CLEAR     37  34  87 CALM      30.00R
REDWOOD FALLS  CLEAR     47  33  58 NE3       29.99R
MANKATO        CLEAR     42  38  85 SW3       30.01R
WORTHINGTON    CLEAR     43  37  79 S5        30.01R
FAIRMONT       CLEAR     41  39  93 CALM      30.01R
$$

...SOUTHWEST WISCONSIN...


CITY           SKY/WX    TMP DP  RH WIND       PRES   REMARKS
LA CROSSE      CLOUDY    44  39  82 NW5       30.01R
PRAIRIE DU CHI CLOUDY    45  43  94 CALM      29.99S
BOSCOBEL       CLOUDY    47  45  93 VRB3      29.99R FOG
LONE ROCK      CLOUDY    47  43  86 NE6       29.99R FOG
PLATTEVILLE    CLOUDY    46  46 100 NE3       29.98S
FORT MC COY    CLOUDY    42  39  86 CALM      30.01S
CAMP DOUGLAS   CLOUDY    42  39  89 CALM      30.00R
MAUSTON-NEW LI CLOUDY    43  40  89 CALM      29.99S
VIROQUA        CLOUDY    43  42  98 CALM      29.98S
WIS DELLS      CLOUDY    44  42  93 NE3       29.99R
$$

...ELSEWHERE IN WISCONSIN...


CITY           SKY/WX    TMP DP  RH WIND       PRES   REMARKS
MILWAUKEE      CLOUDY    39  35  86 NE9       29.99R WCI  33
MADISON        CLOUDY    45  43  93 E8        29.98R
GREEN BAY      CLOUDY    40  38  93 W3        30.01R
EAU CLAIRE     CLEAR     37  35  92 CALM      30.00R
BLACK RVR FLS  CLOUDY    41  37  85 CALM      30.00R
MEDFORD        FOG       33  33  99 CALM      29.99R VSB 1/4
WAUSAU         CLEAR     36  34  92 CALM      29.98R
WIS RAPIDS     CLOUDY    41  40  96 CALM      30.01R
MARSHFIELD     PTCLDY    39  36  89 CALM      29.98R
RICE LAKE      CLEAR     38  36  91 CALM      30.02R
$$

...NORTHEAST IOWA...


CITY           SKY/WX    TMP DP  RH WIND       PRES   REMARKS
WATERLOO       CLOUDY    46  42  86 NW6       30.00R
DUBUQUE        CLOUDY    47  44  90 CALM      29.98R
DECORAH        CLOUDY    45  43  93 N6        29.99R
MASON CITY     MOCLDY    38  37  97 CALM      30.01R
CHARLES CITY   CLOUDY    45  45 100 N5        30.00R
OELWEIN        CLOUDY    46  45  93 NE5       30.00R
$$

...ELSEWHERE IN IOWA...


CITY           SKY/WX    TMP DP  RH WIND       PRES   REMARKS
DES MOINES     CLOUDY    49  40  71 N8        30.00R
IOWA CITY      CLOUDY    50  46  86 N7        29.99R
FORT DODGE     CLOUDY    46  39  76 NE5       30.01S
MARSHALLTOWN   CLOUDY    46  42  86 NW5       30.00R
CEDAR RAPIDS   CLOUDY    48  46  93 NE5       29.97R
$$

...NORTHERN ILLINOIS...


CITY           SKY/WX    TMP DP  RH WIND       PRES   REMARKS
CHICAGO-OHARE  CLOUDY    43  36  76 NE12      29.97R
CHICAGO-MIDWAY CLOUDY    44  37  76 NE9       29.97R
MOLINE         CLOUDY    50  45  83 N3        29.97R
ROCKFORD       CLOUDY    50  44  80 NE6       29.99R
PEORIA         CLOUDY    52  49  89 N7        29.94R FOG
$$

NOTE: "FAIR" INDICATES FEW OR NO CLOUDS BELOW 12,000 FEET WITH NO
SIGNIFICANT WEATHER AND/OR OBSTRUCTIONS TO VISIBILITY. WIND
SPEEDS ARE IN MILES-PER-HOUR.




USA.gov is the U.S. government's official web portal to all federal, state and local government web resources and services.